| time (UTC) | temp F | wind direction | speed MPH | gust MPH | rain 1hr in | rain 24hr in | rain mn in | humidity % | barometer mb |
| 20260831232103 | 71 | 300 | 0.0 | 0.0 | 0.00 | 0.02 | 0.01 | 90 | 1017.1 |
| 20260831230530 | 72 | 302 | 0.0 | 0.0 | 0.00 | 0.02 | 0.01 | 89 | 1017.2 |
| 20260831225033 | 72 | 302 | 0.0 | 0.0 | 0.00 | 0.02 | 0.01 | 89 | 1017.3 |
| 20260831223534 | 72 | 302 | 0.0 | 0.0 | 0.00 | 0.02 | 0.01 | 89 | 1017.3 |
| 20260831222044 | 72 | 302 | 0.0 | 2.0 | 0.00 | 0.02 | 0.01 | 88 | 1017.5 |
| 20260831220533 | 73 | 296 | 0.0 | 3.0 | 0.00 | 0.02 | 0.01 | 89 | 1017.6 |
| 20260831215038 | 73 | 298 | 1.0 | 3.0 | 0.00 | 0.02 | 0.01 | 88 | 1017.7 |
| 20260831213543 | 73 | 302 | 1.0 | 2.0 | 0.00 | 0.02 | 0.01 | 89 | 1017.7 |
| 20260831212033 | 73 | 291 | 1.0 | 3.0 | 0.00 | 0.02 | 0.01 | 89 | 1017.7 |
| 20260831210543 | 73 | 325 | 0.0 | 2.0 | 0.00 | 0.02 | 0.01 | 89 | 1017.6 |
| 20260831205043 | 73 | 152 | 1.0 | 3.0 | 0.01 | 0.02 | 0.01 | 88 | 1017.8 |
| 20260831203528 | 73 | 323 | 0.0 | 1.0 | 0.01 | 0.02 | 0.01 | 88 | 1018.1 |
| 20260831202105 | 73 | 257 | 0.0 | 1.0 | 0.01 | 0.02 | 0.01 | 89 | 1018.2 |
| 20260831200532 | 73 | 292 | 0.0 | 1.0 | 0.01 | 0.02 | 0.01 | 88 | 1018.2 |
| 20260831195035 | 74 | 292 | 0.0 | 2.0 | 0.00 | 0.01 | 0.00 | 84 | 1018.3 |
| 20260831193539 | 74 | 340 | 1.0 | 3.0 | 0.00 | 0.01 | 0.00 | 82 | 1018.4 |
| 20260831192027 | 73 | 312 | 2.0 | 4.0 | 0.00 | 0.01 | 0.00 | 84 | 1018.6 |
| 20260831190536 | 73 | 348 | 0.0 | 3.0 | 0.00 | 0.01 | 0.00 | 84 | 1019.0 |
| 20260831185038 | 72 | 290 | 1.0 | 3.0 | 0.00 | 0.01 | 0.00 | 85 | 1019.1 |
| 20260831183543 | 72 | 25 | 0.0 | 0.0 | 0.00 | 0.01 | 0.00 | 88 | 1019.2 |
| 20260831182047 | 72 | 25 | 0.0 | 1.0 | 0.00 | 0.01 | 0.00 | 86 | 1019.3 |
| 20260831180533 | 72 | 310 | 0.0 | 0.0 | 0.00 | 0.01 | 0.00 | 85 | 1019.4 |
| 20260831175036 | 72 | 310 | 0.0 | 0.0 | 0.00 | 0.01 | 0.00 | 86 | 1019.3 |
| 20260831173539 | 72 | 40 | 0.0 | 0.0 | 0.00 | 0.01 | 0.00 | 85 | 1019.2 |
| 20260831172028 | 72 | 18 | 0.0 | 1.0 | 0.00 | 0.01 | 0.00 | 85 | 1019.4 |
| 20260831170540 | 73 | 55 | 0.0 | 0.0 | 0.00 | 0.01 | 0.00 | 83 | 1019.0 |
| 20260831165043 | 73 | 55 | 0.0 | 1.0 | 0.00 | 0.01 | 0.00 | 81 | 1019.2 |
| 20260831163530 | 74 | 1 | 1.0 | 3.0 | 0.00 | 0.01 | 0.00 | 79 | 1019.4 |
| 20260831162039 | 73 | 359 | 0.0 | 2.0 | 0.00 | 0.01 | 0.00 | 79 | 1019.3 |
| 20260831160545 | 72 | 337 | 1.0 | 2.0 | 0.00 | 0.01 | 0.00 | 82 | 1019.3 |
| 20260831155027 | 71 | 291 | 0.0 | 2.0 | 0.00 | 0.01 | 0.00 | 88 | 1019.6 |
| 20260831153531 | 71 | 262 | 0.0 | 0.0 | 0.00 | 0.01 | 0.00 | 87 | 1019.8 |
| 20260831152055 | 71 | 262 | 0.0 | 0.0 | 0.00 | 0.01 | 0.00 | 87 | 1020.0 |
| 20260831150616 | 71 | 262 | 0.0 | 2.0 | 0.00 | 0.01 | 0.00 | 88 | 1020.1 |
| 20260831145028 | 71 | 159 | 0.0 | 0.0 | 0.00 | 0.01 | 0.00 | 89 | 1019.6 |
| 20260831143537 | 71 | 159 | 0.0 | 0.0 | 0.00 | 0.01 | 0.00 | 88 | 1020.0 |
| 20260831142047 | 71 | 159 | 0.0 | 2.0 | 0.00 | 0.01 | 0.00 | 87 | 1019.9 |
| 20260831140537 | 70 | 174 | 1.0 | 3.0 | 0.00 | 0.01 | 0.00 | 90 | 1019.7 |
| 20260831135028 | 70 | 153 | 1.0 | 2.0 | 0.00 | 0.01 | 0.00 | 93 | 1019.7 |
| 20260831133601 | 68 | 159 | 0.0 | 2.0 | 0.00 | 0.01 | 0.00 | 95 | 1019.8 |
| 20260831132051 | 68 | 164 | 1.0 | 2.0 | 0.00 | 0.01 | 0.00 | 96 | 1019.6 |
| 20260831130608 | 67 | 309 | 0.0 | 0.0 | 0.00 | 0.01 | 0.00 | 96 | 1019.7 |
| 20260831125032 | 67 | 309 | 0.0 | 0.0 | 0.00 | 0.01 | 0.00 | 97 | 1019.8 |
| 20260831123605 | 67 | 309 | 0.0 | 0.0 | 0.00 | 0.01 | 0.00 | 96 | 1019.7 |
| 20260831122031 | 67 | 309 | 0.0 | 0.0 | 0.00 | 0.01 | 0.00 | 97 | 1019.6 |
| 20260831120540 | 66 | 309 | 0.0 | 0.0 | 0.00 | 0.01 | 0.00 | 96 | 1019.7 |
| 20260831115041 | 66 | 309 | 0.0 | 0.0 | 0.00 | 0.01 | 0.00 | 97 | 1019.7 |
| 20260831113530 | 66 | 309 | 0.0 | 0.0 | 0.00 | 0.01 | 0.00 | 96 | 1019.6 |
| 20260831112041 | 66 | 309 | 0.0 | 0.0 | 0.00 | 0.01 | 0.00 | 96 | 1019.6 |
| 20260831110548 | 65 | 309 | 0.0 | 0.0 | 0.00 | 0.01 | 0.00 | 96 | 1019.2 |
| 20260831105053 | 65 | 309 | 0.0 | 0.0 | 0.00 | 0.01 | 0.00 | 97 | 1019.2 |
| 20260831103602 | 65 | 309 | 0.0 | 0.0 | 0.00 | 0.01 | 0.00 | 96 | 1018.9 |
| 20260831102050 | 65 | 309 | 0.0 | 0.0 | 0.00 | 0.01 | 0.00 | 96 | 1018.6 |
| 20260831100704 | 65 | 309 | 0.0 | 0.0 | 0.00 | 0.01 | 0.00 | 96 | 1018.8 |
| 20260831095050 | 66 | 309 | 0.0 | 0.0 | 0.00 | 0.01 | 0.00 | 96 | 1018.9 |
| 20260831093539 | 66 | 309 | 0.0 | 0.0 | 0.00 | 0.01 | 0.00 | 96 | 1018.8 |
| 20260831092032 | 66 | 309 | 0.0 | 0.0 | 0.00 | 0.01 | 0.00 | 96 | 1018.6 |
| 20260831090540 | 66 | 309 | 0.0 | 0.0 | 0.00 | 0.01 | 0.00 | 96 | 1018.4 |
| 20260831085104 | 66 | 309 | 0.0 | 0.0 | 0.00 | 0.01 | 0.00 | 96 | 1018.2 |
| 20260831083549 | 67 | 309 | 0.0 | 0.0 | 0.00 | 0.01 | 0.00 | 96 | 1018.3 |
| 20260831082104 | 67 | 309 | 0.0 | 0.0 | 0.00 | 0.01 | 0.00 | 96 | 1018.4 |
| 20260831080532 | 67 | 309 | 0.0 | 0.0 | 0.00 | 0.01 | 0.00 | 96 | 1018.3 |
| 20260831075036 | 67 | 309 | 0.0 | 0.0 | 0.00 | 0.01 | 0.00 | 96 | 1018.5 |
| 20260831073525 | 67 | 309 | 0.0 | 0.0 | 0.00 | 0.01 | 0.00 | 96 | 1018.5 |
| 20260831072034 | 67 | 309 | 0.0 | 0.0 | 0.00 | 0.01 | 0.00 | 96 | 1018.3 |
| 20260831070613 | 67 | 309 | 0.0 | 0.0 | 0.00 | 0.01 | 0.00 | 96 | 1018.4 |
| 20260831065052 | 67 | 309 | 0.0 | 0.0 | 0.00 | 0.01 | 0.00 | 96 | 1018.4 |
| 20260831063602 | 67 | 309 | 0.0 | 0.0 | 0.00 | 0.01 | 0.00 | 96 | 1018.6 |
| 20260831062028 | 67 | 309 | 0.0 | 0.0 | 0.00 | 0.01 | 0.00 | 96 | 1018.5 |
| 20260831060537 | 68 | 309 | 0.0 | 0.0 | 0.00 | 0.01 | 0.00 | 96 | 1018.6 |
| 20260831055040 | 68 | 309 | 0.0 | 0.0 | 0.00 | 0.01 | 0.00 | 96 | 1018.5 |
| 20260831053530 | 68 | 309 | 0.0 | 0.0 | 0.00 | 0.01 | 0.00 | 96 | 1018.7 |
| 20260831052040 | 68 | 309 | 0.0 | 0.0 | 0.00 | 0.01 | 0.00 | 96 | 1018.8 |
| 20260831050526 | 68 | 309 | 0.0 | 0.0 | 0.00 | 0.01 | 0.00 | 96 | 1018.7 |
| 20260831045029 | 68 | 309 | 0.0 | 0.0 | 0.00 | 0.01 | 0.00 | 96 | 1018.6 |
| 20260831043534 | 68 | 309 | 0.0 | 0.0 | 0.00 | 0.01 | 0.00 | 96 | 1018.8 |
| 20260831042039 | 68 | 309 | 0.0 | 0.0 | 0.00 | 0.01 | 0.00 | 96 | 1018.6 |
| 20260831040549 | 69 | 309 | 0.0 | 0.0 | 0.00 | 0.01 | 0.00 | 95 | 1018.8 |
| 20260831035040 | 69 | 309 | 0.0 | 0.0 | 0.00 | 0.01 | 0.01 | 95 | 1018.8 |
| 20260831033532 | 69 | 309 | 0.0 | 0.0 | 0.00 | 0.01 | 0.01 | 95 | 1018.6 |
| 20260831032044 | 69 | 309 | 0.0 | 0.0 | 0.00 | 0.01 | 0.01 | 95 | 1018.5 |
| 20260831030541 | 70 | 309 | 0.0 | 0.0 | 0.00 | 0.01 | 0.01 | 95 | 1018.6 |
| 20260831025037 | 70 | 309 | 0.0 | 0.0 | 0.00 | 0.01 | 0.01 | 95 | 1018.7 |
| 20260831023546 | 70 | 309 | 0.0 | 0.0 | 0.00 | 0.01 | 0.01 | 95 | 1018.9 |
| 20260831022055 | 70 | 309 | 0.0 | 0.0 | 0.00 | 0.01 | 0.01 | 95 | 1019.0 |
| 20260831020541 | 71 | 309 | 0.0 | 1.0 | 0.00 | 0.01 | 0.01 | 95 | 1018.9 |
| 20260831015036 | 71 | 309 | 0.0 | 1.0 | 0.01 | 0.01 | 0.01 | 94 | 1018.8 |
| 20260831013541 | 71 | 309 | 0.0 | 1.0 | 0.01 | 0.01 | 0.01 | 94 | 1018.8 |
| 20260831012029 | 71 | 309 | 0.0 | 0.0 | 0.01 | 0.01 | 0.01 | 94 | 1018.9 |
| 20260831010538 | 72 | 309 | 0.0 | 0.0 | 0.01 | 0.01 | 0.01 | 94 | 1018.5 |
| 20260831005040 | 72 | 309 | 0.0 | 0.0 | 0.00 | 0.00 | 0.00 | 93 | 1018.4 |
| 20260831003549 | 72 | 309 | 0.0 | 0.0 | 0.00 | 0.00 | 0.00 | 93 | 1018.2 |
| 20260831002053 | 72 | 309 | 0.0 | 0.0 | 0.00 | 0.00 | 0.00 | 92 | 1017.9 |
| 20260831000540 | 73 | 309 | 0.0 | 0.0 | 0.00 | 0.00 | 0.00 | 92 | 1017.7 |
| 20260830235045 | 73 | 309 | 0.0 | 0.0 | 0.00 | 0.00 | 0.00 | 92 | 1017.6 |
| 20260830233535 | 73 | 309 | 0.0 | 0.0 | 0.00 | 0.00 | 0.00 | 91 | 1017.4 |